Find Local Weather

World > North America > United States > North Carolina

Baldwin, North Carolina Regional Weather

Lat: 36.35N, Lon: 81.53W
Wx Zone: NCZ001
Feedback

Baldwin, NC Regional Weather

Expires:201905212200;;241656
ASUS42 KRAH 212110
RWRRAH
NORTH CAROLINA WEATHER ROUNDUP
NATIONAL WEATHER SERVICE RALEIGH NC
500 PM EDT TUE MAY 21 2019

NOTE: "FAIR" INDICATES FEW OR NO CLOUDS BELOW 12,000 FEET WITH NO
SIGNIFICANT WEATHER AND/OR OBSTRUCTIONS TO VISIBILITY.


NCZ001-053-055-056-065-067-212200-
WESTERN NORTH CAROLINA
  
CITY           SKY/WX    TMP DP  RH WIND       PRES   REMARKS
ASHEVILLE      FAIR      83  57  41 SE7       30.01F                  
JEFFERSON      FAIR      76  53  45 SE6       30.07S                  
MORGANTON      FAIR      87  55  33 SE5       30.01S                  
HICKORY        FAIR      84  57  39 VRB5      29.97F                  
WILKESBORO     NOT AVBL                                               
RUTHERFORDTON  FAIR      84  57  39 S8        29.98S                  
MOUNT AIRY     FAIR      83  56  39 CALM      30.01R                  
BOONE          FAIR      79  50  35 CALM      30.07S                  
$$
 

SKY/WX - Weather  TMP - Temperature  DP - Dew Point  RH - Relative Humidity
WIND - Wind Direction/Speed PRES - Barometric Pressure VSB - Visibility
WCI - Wind Chill Index E13G22 Wind - East Wind 13 mph/Gusts of 22 mph